Weather in Balta

Ukraine / Odesa District     47˚56′24″N   29˚37′19″E
temp.,
°C
wind,
m/s
gust,
m/s
humid.,
%
clouds,
%
prec.,
mm/h
press.,
hPa
HPBL,
m
3 december, thu
thu323:00+1˚se4692100 0.0 1027364
02:00ese2490100 0.0 1026190
05:00−1˚e359699 0.0 1025143
08:00+1˚e479499 0.0 1025290
11:00+2˚ese458999 0.0 1024398
14:00+2˚e4793100 0.1 1023296
17:00+3˚ese4797100 0.0 1022282
20:00+4˚ese51197100 0.1 1021380
4 december, fri
fri423:00+5˚se5109699 0.1 1021371
02:00+5˚sse5995100 0.1 1021472
05:00+2˚se4109265 0.0 1020271
08:00+3˚se5119672 0.0 1021361
11:00+5˚se6119583 0.0 1021413
14:00+5˚se7119092 0.0 1020472
17:00+4˚se71096100 0.0 1020544
20:00+4˚se71094100 0.0 1021637
5 december, sat
sat523:00+5˚ese7119093 0.0 1022445
02:00+4˚se7109389 0.0 1022483
05:00+4˚se6993100 0.0 1023526
08:00+3˚se6994100 0.0 1024524
11:00+3˚ese71090100 0.0 1025526
14:00+4˚ese6884100 0.0 1025532
17:00+3˚ese5108589 0.0 1026454
20:00+1˚ese5108745 0.0 1027409
6 december, sun
sun623:00+1˚ese698760 0.0 1027520
02:00+1˚ese688381 0.0 1028625
05:00ese6981100 0.0 1028501
08:00−1˚ese61075100 0.0 1028577
11:00ese6106688 0.0 1028574
14:00+1˚ese6106045 0.0 1027678
17:00ese511690 0.0 1027573
20:00−1˚ese613710 0.0 1027618
7 december, mon
mon723:00−2˚ese5127230 0.0 1028645
02:00−1˚ese7116765 0.0 1027559
05:00−2˚ese7116697 0.0 1027521
08:00−2˚ese7127293 0.0 1026507
11:00−1˚ese7126697 0.0 1026637
14:00+1˚ese7116176 0.0 1025756
17:00−1˚ese71369100 0.0 1025623
20:00−2˚ese61370100 0.0 1025642